This is the latest recevied weather packets stored in our database for station/object KN4DS-3. If no packets are shown the sender has not sent any weather packets the latest 10 day(s).
| Time | Temp. | Humidity | Pressure | Rain* | Wind** | Luminosity | Snow |
|---|---|---|---|---|---|---|---|
| 1778134504 | 20° C | 96% | 1012.2 hPa | 2.54 mm | - | - | - |
| 1778134205 | 20° C | 96% | 1012.6 hPa | 2.54 mm | - | - | - |
| 1778133904 | 20° C | 96% | 1012.9 hPa | 2.79 mm | - | - | - |
| 1778133604 | 20° C | 96% | 1012.6 hPa | 3.81 mm | - | - | - |
| 1778133304 | 20° C | 96% | 1013 hPa | 3.81 mm | - | - | - |
| 1778133004 | 20° C | 96% | 1013.1 hPa | 3.81 mm | - | - | - |
| 1778132704 | 20° C | 96% | 1012.9 hPa | 3.81 mm | - | - | - |
| 1778132404 | 20° C | 95% | 1013.1 hPa | 3.56 mm | - | - | - |
| 1778132105 | 20° C | 95% | 1013.8 hPa | 3.81 mm | - | - | - |
| 1778131804 | 20° C | 95% | 1014 hPa | 3.56 mm | - | - | - |
| 1778131504 | 20° C | 95% | 1013.9 hPa | 3.81 mm | - | - | - |
| 1778131205 | 20° C | 95% | 1014.3 hPa | 3.81 mm | - | - | - |
| 1778130904 | 20.56° C | 95% | 1014.2 hPa | 4.32 mm | - | - | - |
| 1778130605 | 20.56° C | 94% | 1014.9 hPa | 4.57 mm | - | - | - |
| 1778130304 | 20.56° C | 95% | 1015.1 hPa | 4.06 mm | - | - | - |
| 1778130004 | 20.56° C | 95% | 1015.3 hPa | 3.05 mm | - | - | - |
| 1778129705 | 20.56° C | 95% | 1014.7 hPa | 3.05 mm | - | - | - |
| 1778129404 | 20.56° C | 95% | 1014.9 hPa | 3.05 mm | - | - | - |
| 1778129104 | 20.56° C | 94% | 1014.3 hPa | 3.56 mm | - | - | - |
| 1778128805 | 20.56° C | 94% | 1014.1 hPa | 4.32 mm | - | - | - |
| 1778128504 | 20.56° C | 94% | 1013.8 hPa | 4.32 mm | - | - | - |
| 1778128204 | 20.56° C | 94% | 1014 hPa | 4.83 mm | - | - | - |
| 1778127904 | 20.56° C | 94% | 1014.5 hPa | 4.83 mm | - | - | - |
| 1778127604 | 20.56° C | 94% | 1015.4 hPa | 5.08 mm | - | - | - |
| 1778127304 | 20.56° C | 95% | 1015.1 hPa | 4.57 mm | - | - | - |
* Rain latest hour (hover to see other rain measurements)
** Current wind speed in m/s (hover to see current wind gust speed)